TimeEST,TemperatureF,Dew PointF,Humidity,Sea Level PressureIn,VisibilityMPH,Wind Direction,Wind SpeedMPH,Gust SpeedMPH,PrecipitationIn,Events,Conditions,WindDirDegrees,DateUTC
12:53 AM,3.9,-0.0,84,29.92,10.0,Calm,Calm,-,N/A,,Clear,0,2013-02-05 05:53:00
1:53 AM,1.9,-0.9,88,29.90,10.0,Calm,Calm,-,N/A,,Clear,0,2013-02-05 06:53:00
2:53 AM,1.0,-2.9,83,29.90,10.0,Calm,Calm,-,N/A,,Clear,0,2013-02-05 07:53:00
3:53 AM,-0.0,-4.0,83,29.89,10.0,Calm,Calm,-,N/A,,Clear,0,2013-02-05 08:53:00
4:53 AM,-0.9,-5.1,83,29.88,10.0,Calm,Calm,-,N/A,,Clear,0,2013-02-05 09:53:00
5:53 AM,-2.0,-5.1,87,29.86,10.0,Calm,Calm,-,N/A,,Overcast,0,2013-02-05 10:53:00
6:53 AM,3.0,-0.0,87,29.85,10.0,South,5.8,-,N/A,,Overcast,190,2013-02-05 11:53:00
7:53 AM,6.1,3.0,87,29.84,8.0,South,6.9,-,0.00,,Overcast,190,2013-02-05 12:53:00
8:53 AM,7.0,3.9,87,29.82,6.0,South,10.4,-,0.00,,Overcast,180,2013-02-05 13:53:00
9:02 AM,6.8,3.2,85,29.73,1.8,South,10.4,-,0.00,Snow,Light Snow,180,2013-02-05 14:02:00
9:11 AM,6.8,3.2,85,29.73,1.5,South,9.2,-,0.00,Snow,Light Snow,190,2013-02-05 14:11:00
9:19 AM,8.6,5.0,85,29.73,3.0,South,8.1,-,0.00,Snow,Light Snow,180,2013-02-05 14:19:00
9:35 AM,8.6,6.8,92,29.73,1.8,South,8.1,-,0.00,Snow,Light Snow,190,2013-02-05 14:35:00
9:53 AM,9.0,6.1,88,29.81,2.0,South,9.2,-,0.00,Snow,Light Snow,180,2013-02-05 14:53:00
10:00 AM,8.6,6.8,92,29.72,2.5,South,9.2,-,0.00,Snow,Light Snow,180,2013-02-05 15:00:00
10:18 AM,10.4,6.8,85,29.72,1.5,South,10.4,-,0.00,Snow,Light Snow,180,2013-02-05 15:18:00
10:25 AM,10.4,6.8,85,29.72,1.5,South,10.4,-,0.00,Snow,Light Snow,190,2013-02-05 15:25:00
10:53 AM,10.9,8.1,88,29.79,1.5,South,10.4,-,0.00,Snow,Light Snow,190,2013-02-05 15:53:00
11:11 AM,12.2,8.6,85,29.69,3.0,South,10.4,-,0.00,Snow,Light Snow,180,2013-02-05 16:11:00
11:18 AM,12.2,8.6,85,29.69,4.0,South,11.5,-,0.00,Snow,Light Snow,180,2013-02-05 16:18:00
12:28 PM,15.8,12.2,86,29.66,2.0,SSW,13.8,19.6,0.00,Snow,Light Snow,200,2013-02-05 17:28:00
12:35 PM,15.8,12.2,86,29.65,1.2,SSW,15.0,-,0.00,Snow,Light Snow,200,2013-02-05 17:35:00
12:53 PM,17.1,12.9,84,29.71,1.0,South,11.5,-,0.00,Snow,Light Snow,190,2013-02-05 17:53:00
1:19 PM,17.6,12.2,79,29.62,2.5,SSW,11.5,21.9,0.00,Snow,Light Snow,200,2013-02-05 18:19:00
1:30 PM,17.6,14.0,86,29.61,1.8,South,10.4,-,0.00,Snow,Light Snow,190,2013-02-05 18:30:00
1:53 PM,19.0,14.0,81,29.70,1.8,SSW,18.4,24.2,0.00,Snow,Light Snow,210,2013-02-05 18:53:00
2:13 PM,19.4,15.8,86,29.62,2.5,SW,11.5,-,0.00,Snow,Light Snow,220,2013-02-05 19:13:00
2:32 PM,19.4,15.8,86,29.62,1.2,SW,13.8,-,0.00,Snow,Light Snow,230,2013-02-05 19:32:00
2:42 PM,19.4,15.8,86,29.62,1.2,SW,13.8,-,0.00,Snow,Light Snow,230,2013-02-05 19:42:00
2:53 PM,19.0,16.0,88,29.71,1.2,SW,11.5,-,0.00,Snow,Light Snow,230,2013-02-05 19:53:00
3:24 PM,19.4,17.6,93,29.63,2.5,West,11.5,-,0.00,Snow,Light Snow,260,2013-02-05 20:24:00
3:43 PM,19.4,17.6,93,29.64,1.2,West,13.8,20.7,0.00,Snow,Light Snow,270,2013-02-05 20:43:00
3:53 PM,19.9,17.1,89,29.73,1.0,West,8.1,-,0.00,Snow,Light Snow,280,2013-02-05 20:53:00
4:17 PM,19.4,15.8,86,29.66,2.0,West,9.2,18.4,0.00,Snow,Light Snow,280,2013-02-05 21:17:00
4:28 PM,19.4,15.8,86,29.67,1.8,West,11.5,18.4,0.00,Snow,Light Snow,270,2013-02-05 21:28:00
4:53 PM,19.0,15.1,85,29.77,1.0,WNW,8.1,16.1,0.00,Snow,Light Snow,300,2013-02-05 21:53:00
5:24 PM,17.6,14.0,86,29.70,3.0,NW,8.1,18.4,0.00,Snow,Light Snow,310,2013-02-05 22:24:00
5:41 PM,17.6,12.2,79,29.71,3.0,West,6.9,-,0.00,Snow,Light Snow,280,2013-02-05 22:41:00
5:51 PM,17.6,14.0,86,29.71,2.0,WNW,9.2,-,0.00,Snow,Light Snow,290,2013-02-05 22:51:00
5:53 PM,18.0,12.9,81,29.81,1.8,WNW,8.1,16.1,0.00,Snow,Light Snow,290,2013-02-05 22:53:00
6:04 PM,17.6,12.2,79,29.72,2.0,NW,8.1,-,0.00,Snow,Light Snow,320,2013-02-05 23:04:00
6:23 PM,17.6,14.0,86,29.74,1.8,Variable,4.6,-,0.00,Snow,Light Snow,0,2013-02-05 23:23:00
6:29 PM,17.6,12.2,79,29.74,2.0,Variable,5.8,-,0.00,Snow,Light Snow,0,2013-02-05 23:29:00
6:31 PM,17.6,12.2,79,29.74,2.5,WNW,5.8,-,0.00,Snow,Light Snow,300,2013-02-05 23:31:00
6:39 PM,15.8,12.2,86,29.75,5.0,WNW,4.6,-,0.00,Snow,Light Snow,300,2013-02-05 23:39:00
6:46 PM,15.8,12.2,86,29.75,6.0,WNW,3.5,-,0.00,,Mostly Cloudy,290,2013-02-05 23:46:00
6:53 PM,16.0,12.0,84,29.84,9.0,West,4.6,-,0.00,,Scattered Clouds,280,2013-02-05 23:53:00
7:03 PM,15.8,10.4,79,29.76,10.0,WNW,4.6,-,N/A,,Partly Cloudy,290,2013-02-06 00:03:00
7:32 PM,15.8,10.4,79,29.77,10.0,Calm,Calm,-,N/A,,Mostly Cloudy,0,2013-02-06 00:32:00
7:53 PM,15.1,12.0,88,29.86,3.0,West,3.5,-,0.00,Snow,Light Snow,280,2013-02-06 00:53:00
8:00 PM,15.8,12.2,86,29.78,2.0,WNW,3.5,-,0.00,Snow,Light Snow,290,2013-02-06 01:00:00
8:13 PM,15.8,12.2,86,29.79,6.0,WNW,5.8,-,0.00,Snow,Light Snow,290,2013-02-06 01:13:00
8:53 PM,17.1,12.9,84,29.90,4.0,Variable,5.8,-,0.00,Snow,Light Snow,0,2013-02-06 01:53:00
9:53 PM,17.1,10.0,74,29.93,5.0,NW,4.6,-,0.00,Snow,Light Snow,320,2013-02-06 02:53:00
10:40 PM,17.6,12.2,79,29.86,1.8,NW,3.5,-,0.00,Snow,Light Snow,320,2013-02-06 03:40:00
10:53 PM,17.1,12.9,84,29.95,1.2,NW,3.5,-,0.00,Snow,Light Snow,320,2013-02-06 03:53:00
11:10 PM,15.8,12.2,86,29.88,3.0,Variable,3.5,-,0.00,Snow,Light Snow,0,2013-02-06 04:10:00
11:23 PM,17.6,12.2,79,29.89,1.8,Variable,3.5,-,0.00,Snow,Light Snow,0,2013-02-06 04:23:00
11:33 PM,15.8,10.4,79,29.89,3.0,NW,9.2,-,0.01,Snow,Light Snow,310,2013-02-06 04:33:00
11:53 PM,15.1,7.0,70,29.98,10.0,Variable,5.8,-,0.01,,Mostly Cloudy,0,2013-02-06 04:53:00